Tracking 31030 objects as of 16-Jul-2025
HD Live streaming from Space Station
objects crossing your sky now

CZ-6A DEB

Track CZ-6A DEB now!
10-day predictions


NORAD ID: 56652
Int'l Code: 2022-151AGC
Perigee: 766.6 km
Apogee: 879.1 km
Inclination: 98.8 °
Period: 101.2 minutes
Semi major axis: 7193 km
RCS: Unknown
Launch date: November 11, 2022
Source: People's Republic of China (PRC)
Launch site: Taiyaun Space Center, China (TSC)

Note: This is SATELLITE DEBRIS
Your satellite tracking list
Your tracking list is empty




NASA's NSSDC Master Catalog

Two Line Element Set (TLE):
1 56652U 22151AGC 25197.49359900  .00002708  00000-0  11876-2 0  9990
2 56652  98.8220 207.7905 0078238 233.2987 126.0986 14.22858282123681
Source of the keplerian elements: AFSPC